Regional Weather Roundup
Issued by NWS

Home | Current Version | Previous Version | Text Only | Print | Product List | Glossary On
Versions: 1 2 3 4 5 6 7 8 9 10 11 12 13 14 15 16 17 18 19 20 21 22 23 24 25 26 27 28 29 30 31 32 33 34 35 36 37 38 39 40 41 42 43 44 45 46 47 48 49 50
000
ASUS45 KPSR 251210
RWRAZ

ARIZONA REGIONAL HOURLY WEATHER ROUNDUP
NATIONAL WEATHER SERVICE PHOENIX AZ
500 AM MST THU DEC 25 2014

NOTE: FAIR INDICATES FEW OR NO CLOUDS BELOW 12,000 FEET WITH NO
SIGNIFICANT WEATHER AND/OR OBSTRUCTIONS TO VISIBILITY.

AZZ001>003-036-251300-
NORTHWEST ARIZONA

CITY           SKY/WX    TMP DP  RH WIND       PRES   REMARKS
BULLHEAD CITY  MOCLDY    50  18  27 S5        29.71S
KINGMAN        PTCLDY    48  21  34 SW22G33   29.68S
6HR MIN TEMP:  39; 6HR MAX TEMP:  49;

$$

AZZ004>008-015-016-018-251300-
NORTH CENTRAL ARIZONA

CITY           SKY/WX    TMP DP  RH WIND       PRES   REMARKS
GRAND CANYON   CLOUDY    32  10  40 SW17G29   29.63F WCI  21
6HR MIN TEMP:  32; 6HR MAX TEMP:  36;

PRESCOTT       MOCLDY    38  13  35 SE12      29.71F WCI  30
6HR MIN TEMP:  36; 6HR MAX TEMP:  45;

FLAGSTAFF      MOCLDY    30   9  41 SW18      29.67F WCI  18
6HR MIN TEMP:  30; 6HR MAX TEMP:  33;

PAYSON         PTCLDY    36  14  41 CALM      29.77F
PAGE           CLOUDY    36  17  46 CALM      29.56S
6HR MIN TEMP:  32; 6HR MAX TEMP:  37;

$$

AZZ009>014-017-251300-
NORTHEAST ARIZONA

CITY           SKY/WX    TMP DP  RH WIND       PRES   REMARKS
WINSLOW        CLEAR     43  12  28 SW6G24    29.65S
6HR MIN TEMP:  34; 6HR MAX TEMP:  48;

SAINT JOHNS    CLEAR     43   9  24 SW13      29.66S
6HR MIN TEMP:  32; 6HR MAX TEMP:  49;

WINDOW ROCK    PTCLDY    37   7  28 SW21G30   29.65F WCI  26
6HR MIN TEMP:  34; 6HR MAX TEMP:  40;

SHOW LOW       CLEAR     36   3  25 S36G51    29.68F WCI  21
$$

AZZ023-251300-
GREATER PHOENIX AREA

CITY           SKY/WX    TMP DP  RH WIND       PRES   REMARKS
PHOENIX        PTCLDY    48  31  51 E8        29.71F
6HR MIN TEMP:  47; 6HR MAX TEMP:  54;

BUCKEYE          N/A     39  28  65 E3        29.71F
LUKE AFB       MOCLDY    42  34  74 NW2       29.71F
6HR MIN TEMP:  41; 6HR MAX TEMP:  50;

DEER VALLEY    MOCLDY    48  25  40 E8        29.71F
6HR MIN TEMP:  45; 6HR MAX TEMP:  52;

SCOTTSDALE     PTCLDY    48  26  42 CALM      29.73F
6HR MIN TEMP:  45; 6HR MAX TEMP:  50;

MESA-GATEWAY   CLEAR    N/A N/A N/A SE6       29.75F
$$

AZZ027-028-251300-
SOUTHWEST MARICOPA COUNTY AND PINAL COUNTY

CITY           SKY/WX    TMP DP  RH WIND       PRES   REMARKS
CASA GRANDE    CLEAR     43  30  61 CALM      29.73F
6HR MIN TEMP:  43; 6HR MAX TEMP:  48;

GILA BEND      FAIR      44  28  52 S5        29.71F
6HR MIN TEMP:  42; 6HR MAX TEMP:  51;

$$

AZZ503-504-507>509-251300-
SOUTHEAST ARIZONA

CITY           SKY/WX    TMP DP  RH WIND       PRES   REMARKS
TUCSON         CLOUDY    50  24  36 E6        29.79F
6HR MIN TEMP:  45; 6HR MAX TEMP:  51;

DAVIS-MONTHAN  PTCLDY    49  23  36 E10       29.77F
6HR MIN TEMP:  47; 6HR MAX TEMP:  50;

NOGALES        CLOUDY    43  20  39 CALM      29.84F
6HR MIN TEMP:  40; 6HR MAX TEMP:  45;

SIERRA VISTA   CLOUDY    54   4  13 S12       29.83F
6HR MIN TEMP:  42; 6HR MAX TEMP:  54;

DOUGLAS        CLOUDY    44   8  23 SE12      29.86S
6HR MIN TEMP:  32; 6HR MAX TEMP:  44;

SAFFORD        MOCLDY    35  23  61 NW5       29.79F WCI  31
6HR MIN TEMP:  34; 6HR MAX TEMP:  45;

$$

AZZ020-021-025-026-031-251300-
SOUTHWEST ARIZONA

CITY           SKY/WX    TMP DP  RH WIND       PRES   REMARKS
YUMA           MOCLDY   N/A N/A N/A N7        29.69R
$$

CAZ031-033-041-043-047-048-061-251300-
SOUTHERN CALIFORNIA

CITY           SKY/WX    TMP DP  RH WIND       PRES   REMARKS
DOWNTOWN L.A.  CLEAR     56  34  43 NW8G18    29.79R
6HR MIN TEMP:  56; 6HR MAX TEMP:  61;

L.A. AIRPORT   PTCLDY    56  33  42 N23G31    29.79S
6HR MIN TEMP:  56; 6HR MAX TEMP:  61;

SAN DIEGO      MOCLDY    61  53  75 W8        29.83S
6HR MIN TEMP:  61; 6HR MAX TEMP:  63; 6HR PCP: TRACE;

BURBANK        CLEAR     54  33  45 N14G23    29.81R
6HR MIN TEMP:  53; 6HR MAX TEMP:  58;

ONTARIO        MOCLDY    55  44  66 NE5       29.79R
6HR MIN TEMP:  52; 6HR MAX TEMP:  56;

RIVERSIDE      CLOUDY    54  43  66 N3        29.80R
6HR MIN TEMP:  49; 6HR MAX TEMP:  58;

PALM SPRINGS   CLEAR     52  30  43 VRB5      29.69S
6HR MIN TEMP:  47; 6HR MAX TEMP:  54;

EL CENTRO NAS  PTCLDY    64  43  46 W16G28    29.69R
6HR MIN TEMP:  52; 6HR MAX TEMP:  67; 6HR PCP: TRACE;

IMPERIAL       PTCLDY    63  44  50 W16G24    29.68R
6HR MIN TEMP:  50; 6HR MAX TEMP:  65; 6HR PCP: TRACE;

BLYTHE         CLEAR     54  18  24 SW7       29.70F
6HR MIN TEMP:  50; 6HR MAX TEMP:  56;

NEEDLES        PTCLDY    53  12  19 S7        29.70S
6HR MIN TEMP:  50; 6HR MAX TEMP:  59;

$$

NVZ020-UTZ003-251300-
SOUTHERN NEVADA-UTAH

CITY           SKY/WX    TMP DP  RH WIND       PRES   REMARKS
LAS VEGAS      CLOUDY    51  19  28 N26G33    29.63S
6HR MIN TEMP:  44; 6HR MAX TEMP:  60; 6HR PCP: TRACE;

SALT LAKE CITY FLURRIES  33  24  69 W20       29.55R WCI  21
6HR MIN TEMP:  33; 6HR MAX TEMP:  47; 6HR PCP:  0.15;

$$

NMZ009-TXZ055-251300-
NEW MEXICO-WEST TEXAS

CITY           SKY/WX    TMP DP  RH WIND       PRES   REMARKS
ALBUQUERQUE    MOCLDY    32  11  41 SE12      29.74F WCI  23
6HR MIN TEMP:  31; 6HR MAX TEMP:  33;

EL PASO        CLOUDY    34   9  35 S5        29.83F WCI  30
6HR MIN TEMP:  34; 6HR MAX TEMP:  38;

$$


........................KEY........................
SKY/WX - SKY CONDITION/WEATHER
TMP    - TEMPERATURE IN FAHRENHEIT
DP     - DEW POINT IN FAHRENHEIT
RH     - RELATIVE HUMIDITY IN PERCENT
WIND   - DIRECTION AND SPEED IN MILES PER HOUR (MPH)
VRB    - VARIABLE WIND DIRECTION
PRES   - MEAN SEA LEVEL PRESSURE IN INCHES OF MERCURY
         F - FALLING PRESSURE   R - RISING PRESSURE
         S - STEADY PRESSURE
VSB    - VISIBILITY IN MILES
HX     - HEAT INDEX IN FAHRENHEIT
WCI    - WIND CHILL INDEX IN FAHRENHEIT
TC     - TEMPERATURE IN CELSIUS WHICH IS ALSO KNOWN AS
         TEMPERATURE IN CENTIGRADE
AFB    - AIR FORCE BASE
         LUKE AFB IS LUKE AIR FORCE BASE
         DAVIS-MONTHAN IS DAVIS-MONTHAN AIR FORCE BASE
NAS    - NAVAL AIR STATION
         EL CENTRO NAS IS EL CENTRO NAVAL AIR STATION
N/A    - NOT AVAILABLE


USA.gov is the U.S. government's official web portal to all federal, state and local government web resources and services.